Time,TemperatureF,DewpointF,PressureIn,WindDirection,WindDirectionDegrees,WindSpeedMPH,WindSpeedGustMPH,Humidity,HourlyPrecipIn,Conditions,Clouds,dailyrainin,SoftwareType,DateUTC
2013-02-10 00:01:00,18.0,16.0,29.92,SSW,198,0.0,0.0,90,0.00,,,-99.99,,2013-02-10 07:01:00,
2013-02-10 00:11:00,18.0,16.0,29.92,SSW,198,0.0,0.0,90,0.00,,,-99.99,,2013-02-10 07:11:00,
2013-02-10 00:21:00,18.0,16.0,29.93,SSW,198,0.0,2.0,90,0.00,,,-99.99,,2013-02-10 07:21:00,
2013-02-10 00:31:00,18.0,16.0,29.93,SSW,198,0.0,0.0,91,0.00,,,-99.99,,2013-02-10 07:31:00,
2013-02-10 00:41:00,18.0,16.0,29.93,SSW,198,0.0,0.0,91,0.00,,,-99.99,,2013-02-10 07:41:00,
2013-02-10 00:52:00,18.0,16.0,29.93,SSW,198,0.0,0.0,91,0.00,,,-99.99,,2013-02-10 07:52:00,
2013-02-10 01:01:00,18.0,16.0,29.93,SSW,198,0.0,0.0,91,0.00,,,-99.99,,2013-02-10 08:01:00,
2013-02-10 01:11:00,18.0,16.0,29.93,SSW,198,0.0,0.0,91,0.00,,,-99.99,,2013-02-10 08:11:00,
2013-02-10 01:21:00,19.0,17.0,29.93,SSW,198,0.0,0.0,91,0.00,,,-99.99,,2013-02-10 08:21:00,
2013-02-10 01:31:00,19.0,17.0,29.93,SSW,198,0.0,0.0,91,0.00,,,-99.99,,2013-02-10 08:31:00,
2013-02-10 01:42:00,19.0,17.0,29.93,SSW,198,0.0,0.0,91,0.00,,,-99.99,,2013-02-10 08:42:00,
2013-02-10 01:52:00,19.0,17.0,29.93,SSW,198,2.0,3.0,91,0.00,,,-99.99,,2013-02-10 08:52:00,
2013-02-10 02:01:00,19.0,17.0,29.93,SSW,198,0.0,2.0,91,0.00,,,-99.99,,2013-02-10 09:01:00,
2013-02-10 02:11:00,19.0,17.0,29.93,SSW,198,0.0,2.0,91,0.00,,,-99.99,,2013-02-10 09:11:00,
2013-02-10 02:21:00,19.0,17.0,29.93,SSW,198,0.0,2.0,91,0.00,,,-99.99,,2013-02-10 09:21:00,
2013-02-10 02:31:00,19.0,17.0,29.93,SSW,198,0.0,3.0,91,0.00,,,-99.99,,2013-02-10 09:31:00,
2013-02-10 02:41:00,19.0,17.0,29.93,SSW,198,0.0,3.0,91,0.00,,,-99.99,,2013-02-10 09:41:00,
2013-02-10 02:52:00,19.0,17.0,29.93,SSW,199,0.0,3.0,91,0.00,,,-99.99,,2013-02-10 09:52:00,
2013-02-10 03:01:00,18.0,16.0,29.93,SSW,198,0.0,0.0,91,0.00,,,-99.99,,2013-02-10 10:01:00,
2013-02-10 03:11:00,18.0,16.0,29.93,SSW,198,0.0,0.0,91,0.00,,,-99.99,,2013-02-10 10:11:00,
2013-02-10 03:21:00,18.0,16.0,29.93,SSW,199,0.0,0.0,91,0.00,,,-99.99,,2013-02-10 10:21:00,
2013-02-10 03:31:00,18.0,16.0,29.94,SSW,198,0.0,0.0,91,0.00,,,-99.99,,2013-02-10 10:31:00,
2013-02-10 03:41:00,18.0,16.0,29.94,SSW,198,0.0,0.0,91,0.00,,,-99.99,,2013-02-10 10:41:00,
2013-02-10 03:51:00,18.0,16.0,29.94,SSW,199,0.0,0.0,91,0.00,,,-99.99,,2013-02-10 10:51:00,
2013-02-10 04:01:00,18.0,16.0,29.93,SSW,198,0.0,0.0,91,0.00,,,-99.99,,2013-02-10 11:01:00,
2013-02-10 04:11:00,18.0,16.0,29.93,SSW,198,0.0,0.0,91,0.00,,,-99.99,,2013-02-10 11:11:00,
2013-02-10 04:21:00,18.0,16.0,29.94,SSW,198,0.0,0.0,91,0.00,,,-99.99,,2013-02-10 11:21:00,
2013-02-10 04:31:00,18.0,16.0,29.94,SSW,199,0.0,0.0,91,0.00,,,-99.99,,2013-02-10 11:31:00,
2013-02-10 04:41:00,18.0,16.0,29.94,SSW,199,0.0,0.0,91,0.00,,,-99.99,,2013-02-10 11:41:00,
2013-02-10 04:52:00,18.0,16.0,29.94,SSW,199,0.0,0.0,91,0.00,,,-99.99,,2013-02-10 11:52:00,
2013-02-10 05:01:00,18.0,16.0,29.95,SSW,198,0.0,0.0,91,0.00,,,-99.99,,2013-02-10 12:01:00,
2013-02-10 05:12:00,18.0,16.0,29.95,SSW,198,0.0,0.0,91,0.00,,,-99.99,,2013-02-10 12:12:00,
2013-02-10 05:21:00,18.0,16.0,29.94,SSW,199,0.0,0.0,91,0.00,,,-99.99,,2013-02-10 12:21:00,
2013-02-10 05:31:00,17.0,15.0,29.94,SSW,198,0.0,0.0,90,0.00,,,-99.99,,2013-02-10 12:31:00,
2013-02-10 05:41:00,17.0,15.0,29.94,SSW,198,0.0,0.0,90,0.00,,,-99.99,,2013-02-10 12:41:00,
2013-02-10 05:52:00,17.0,15.0,29.95,SSW,198,0.0,0.0,90,0.00,,,-99.99,,2013-02-10 12:52:00,
2013-02-10 06:02:00,17.0,15.0,29.95,SSW,198,0.0,0.0,91,0.00,,,-99.99,,2013-02-10 13:02:00,
2013-02-10 06:11:00,17.0,15.0,29.95,SSW,198,0.0,0.0,91,0.00,,,-99.99,,2013-02-10 13:11:00,
2013-02-10 06:21:00,17.0,15.0,29.96,SSW,199,0.0,0.0,90,0.00,,,-99.99,,2013-02-10 13:21:00,
2013-02-10 06:31:00,17.0,15.0,29.96,SSW,199,0.0,0.0,90,0.00,,,-99.99,,2013-02-10 13:31:00,
2013-02-10 06:41:00,17.0,15.0,29.96,SSW,199,0.0,0.0,90,0.00,,,-99.99,,2013-02-10 13:41:00,
2013-02-10 06:52:00,17.0,15.0,29.96,SSW,199,0.0,0.0,90,0.00,,,-99.99,,2013-02-10 13:52:00,
2013-02-10 07:01:00,17.0,15.0,29.96,SSW,198,0.0,0.0,91,0.00,,,-99.99,,2013-02-10 14:01:00,
2013-02-10 07:11:00,17.0,15.0,29.96,SSW,198,0.0,0.0,91,0.00,,,-99.99,,2013-02-10 14:11:00,
2013-02-10 07:21:00,17.0,15.0,29.97,SSW,198,0.0,0.0,91,0.00,,,-99.99,,2013-02-10 14:21:00,
2013-02-10 07:31:00,17.0,15.0,29.97,SSW,199,0.0,0.0,91,0.00,,,-99.99,,2013-02-10 14:31:00,
2013-02-10 07:41:00,17.0,15.0,29.97,SSW,199,0.0,0.0,91,0.00,,,-99.99,,2013-02-10 14:41:00,
2013-02-10 07:52:00,17.0,15.0,29.98,SSW,199,0.0,0.0,91,0.00,,,-99.99,,2013-02-10 14:52:00,
2013-02-10 08:01:00,17.0,15.0,29.98,SSW,198,0.0,0.0,91,0.00,,,-99.99,,2013-02-10 15:01:00,
2013-02-10 08:11:00,17.0,15.0,29.98,SSW,198,0.0,0.0,91,0.00,,,-99.99,,2013-02-10 15:11:00,
2013-02-10 08:21:00,18.0,16.0,29.99,SSW,199,0.0,0.0,91,0.00,,,-99.99,,2013-02-10 15:21:00,
2013-02-10 08:31:00,18.0,16.0,29.99,SSW,199,0.0,0.0,91,0.00,,,-99.99,,2013-02-10 15:31:00,
2013-02-10 08:41:00,18.0,16.0,29.99,SSW,199,0.0,0.0,91,0.00,,,-99.99,,2013-02-10 15:41:00,
2013-02-10 08:52:00,19.0,17.0,30.00,SSW,198,0.0,0.0,91,0.00,,,-99.99,,2013-02-10 15:52:00,
2013-02-10 09:01:00,21.0,19.0,30.00,SSW,199,0.0,0.0,90,0.00,,,-99.99,,2013-02-10 16:01:00,
2013-02-10 09:11:00,23.0,20.0,30.00,SSW,198,0.0,0.0,89,0.00,,,-99.99,,2013-02-10 16:11:00,
2013-02-10 09:21:00,23.0,20.0,30.00,SSW,198,0.0,0.0,89,0.00,,,-99.99,,2013-02-10 16:21:00,
2013-02-10 09:31:00,23.0,19.0,30.01,SSW,199,0.0,0.0,86,0.00,,,-99.99,,2013-02-10 16:31:00,
2013-02-10 09:41:00,23.0,19.0,30.01,SSW,199,0.0,0.0,86,0.00,,,-99.99,,2013-02-10 16:41:00,
2013-02-10 09:52:00,23.0,19.0,30.01,SSW,199,0.0,0.0,86,0.00,,,-99.99,,2013-02-10 16:52:00,
2013-02-10 10:01:00,24.0,21.0,30.01,SSW,198,0.0,0.0,89,0.00,,,-99.99,,2013-02-10 17:01:00,
2013-02-10 10:11:00,24.0,21.0,30.01,SSW,198,0.0,0.0,89,0.00,,,-99.99,,2013-02-10 17:11:00,
2013-02-10 10:21:00,25.0,22.0,30.01,SSW,199,0.0,0.0,87,0.00,,,-99.99,,2013-02-10 17:21:00,
2013-02-10 10:31:00,27.0,24.0,30.02,SSW,199,0.0,0.0,90,0.00,,,-99.99,,2013-02-10 17:31:00,
2013-02-10 10:42:00,28.0,25.0,30.02,SSW,196,0.0,0.0,90,0.00,,,-99.99,,2013-02-10 17:42:00,
2013-02-10 10:52:00,28.0,25.0,30.02,SSW,196,0.0,0.0,90,0.00,,,-99.99,,2013-02-10 17:52:00,
2013-02-10 11:01:00,30.0,25.0,30.02,ESE,113,0.0,5.0,82,0.00,,,-99.99,,2013-02-10 18:01:00,
2013-02-10 11:11:00,31.0,23.0,30.02,WSW,237,2.0,8.0,73,0.00,,,-99.99,,2013-02-10 18:11:00,
2013-02-10 11:21:00,31.0,23.0,30.02,WSW,237,2.0,8.0,73,0.00,,,-99.99,,2013-02-10 18:21:00,
2013-02-10 11:31:00,30.0,21.0,30.02,SSE,162,6.0,11.0,69,0.00,,,-99.99,,2013-02-10 18:31:00,
2013-02-10 11:41:00,30.0,21.0,30.02,SSE,162,6.0,11.0,69,0.00,,,-99.99,,2013-02-10 18:41:00,
2013-02-10 11:52:00,28.0,21.0,30.01,SSE,162,6.0,11.0,75,0.12,,,-99.99,,2013-02-10 18:52:00,
2013-02-10 12:01:00,27.0,19.0,30.01,South,169,10.0,14.0,72,0.07,,,-99.99,,2013-02-10 19:01:00,
2013-02-10 12:11:00,27.0,20.0,30.01,SSE,155,4.0,15.0,73,0.05,,,-99.99,,2013-02-10 19:11:00,
2013-02-10 12:21:00,27.0,20.0,30.01,SSE,155,4.0,15.0,73,0.05,,,-99.99,,2013-02-10 19:21:00,
2013-02-10 12:31:00,26.0,19.0,30.00,SSE,156,5.0,19.0,74,0.00,,,-99.99,,2013-02-10 19:31:00,
2013-02-10 12:42:00,27.0,19.0,30.00,SSE,163,4.0,14.0,71,0.00,,,-99.99,,2013-02-10 19:42:00,
2013-02-10 12:51:00,27.0,19.0,30.00,SSE,163,4.0,14.0,71,0.00,,,-99.99,,2013-02-10 19:51:00,
2013-02-10 13:01:00,29.0,18.0,30.00,South,184,6.0,9.0,64,0.00,,,-99.99,,2013-02-10 20:01:00,
2013-02-10 13:11:00,29.0,18.0,30.00,South,184,6.0,9.0,64,0.00,,,-99.99,,2013-02-10 20:11:00,
2013-02-10 13:21:00,27.0,19.0,29.99,WSW,255,13.0,14.0,71,0.00,,,-99.99,,2013-02-10 20:21:00,
2013-02-10 13:31:00,25.0,21.0,29.99,NW,306,4.0,8.0,86,0.00,,,-99.99,,2013-02-10 20:31:00,
2013-02-10 13:42:00,26.0,22.0,29.99,SSE,161,5.0,7.0,83,0.00,,,-99.99,,2013-02-10 20:42:00,
2013-02-10 13:52:00,26.0,22.0,29.99,SSE,161,5.0,7.0,83,0.00,,,-99.99,,2013-02-10 20:52:00,
2013-02-10 14:02:00,26.0,22.0,30.00,SSW,202,1.0,10.0,84,0.00,,,-99.99,,2013-02-10 21:02:00,
2013-02-10 14:11:00,26.0,22.0,30.00,SSW,202,1.0,10.0,84,0.00,,,-99.99,,2013-02-10 21:11:00,
2013-02-10 14:21:00,28.0,22.0,29.99,SSE,168,2.0,11.0,77,0.00,,,-99.99,,2013-02-10 21:21:00,
2013-02-10 14:31:00,28.0,19.0,29.99,SSE,153,7.0,15.0,68,0.04,,,-99.99,,2013-02-10 21:31:00,
2013-02-10 14:41:00,27.0,18.0,29.99,SSW,206,4.0,15.0,68,0.00,,,-99.99,,2013-02-10 21:41:00,
2013-02-10 14:51:00,27.0,18.0,29.99,SSW,206,4.0,15.0,68,0.00,,,-99.99,,2013-02-10 21:51:00,
2013-02-10 15:01:00,28.0,17.0,29.99,SSE,153,5.0,13.0,64,0.00,,,-99.99,,2013-02-10 22:01:00,
2013-02-10 15:11:00,28.0,18.0,30.00,WNW,286,3.0,10.0,67,0.00,,,-99.99,,2013-02-10 22:11:00,
2013-02-10 15:21:00,28.0,18.0,30.00,WNW,286,3.0,10.0,67,0.00,,,-99.99,,2013-02-10 22:21:00,
2013-02-10 15:31:00,29.0,19.0,30.00,SW,215,1.0,9.0,66,0.00,,,-99.99,,2013-02-10 22:31:00,
2013-02-10 15:41:00,28.0,17.0,30.00,SSW,206,3.0,7.0,64,0.00,,,-99.99,,2013-02-10 22:41:00,
2013-02-10 15:52:00,28.0,17.0,30.00,SSW,206,3.0,7.0,64,0.00,,,-99.99,,2013-02-10 22:52:00,
2013-02-10 16:01:00,28.0,18.0,30.01,SW,229,5.0,9.0,66,0.00,,,-99.99,,2013-02-10 23:01:00,
2013-02-10 16:11:00,28.0,18.0,30.01,SW,229,5.0,9.0,66,0.00,,,-99.99,,2013-02-10 23:11:00,
2013-02-10 16:21:00,26.0,21.0,30.02,West,268,11.0,15.0,80,0.00,,,-99.99,,2013-02-10 23:21:00,
2013-02-10 16:31:00,24.0,20.0,30.03,WSW,244,4.0,10.0,86,0.00,,,-99.99,,2013-02-10 23:31:00,
2013-02-10 16:41:00,24.0,20.0,30.02,SW,229,0.0,5.0,86,0.00,,,-99.99,,2013-02-10 23:41:00,
2013-02-10 16:52:00,24.0,20.0,30.02,SW,229,0.0,5.0,86,0.00,,,-99.99,,2013-02-10 23:52:00,
2013-02-10 17:01:00,25.0,21.0,30.03,SW,229,0.0,2.0,84,0.00,,,-99.99,,2013-02-11 00:01:00,
2013-02-10 17:11:00,24.0,20.0,30.03,SW,229,0.0,1.0,83,0.00,,,-99.99,,2013-02-11 00:11:00,
2013-02-10 17:21:00,24.0,20.0,30.03,SW,229,0.0,1.0,83,0.00,,,-99.99,,2013-02-11 00:21:00,
2013-02-10 17:31:00,24.0,20.0,30.04,SW,229,0.0,0.0,83,0.00,,,-99.99,,2013-02-11 00:31:00,
2013-02-10 17:41:00,24.0,20.0,30.04,SW,229,0.0,0.0,83,0.00,,,-99.99,,2013-02-11 00:41:00,
2013-02-10 17:52:00,24.0,20.0,30.04,SW,229,0.0,0.0,83,0.00,,,-99.99,,2013-02-11 00:52:00,
2013-02-10 18:01:00,24.0,20.0,30.05,SW,229,0.0,2.0,84,0.00,,,-99.99,,2013-02-11 01:01:00,
2013-02-10 18:11:00,24.0,20.0,30.05,SW,229,0.0,2.0,84,0.00,,,-99.99,,2013-02-11 01:11:00,
2013-02-10 18:21:00,23.0,19.0,30.05,SW,229,0.0,0.0,85,0.00,,,-99.99,,2013-02-11 01:21:00,
2013-02-10 18:31:00,23.0,19.0,30.06,SW,229,2.0,2.0,85,0.00,,,-99.99,,2013-02-11 01:31:00,
2013-02-10 18:41:00,23.0,19.0,30.06,SW,229,0.0,1.0,86,0.00,,,-99.99,,2013-02-11 01:41:00,
2013-02-10 18:52:00,23.0,19.0,30.06,SW,229,0.0,1.0,86,0.00,,,-99.99,,2013-02-11 01:52:00,
2013-02-10 19:01:00,23.0,20.0,30.07,SW,229,0.0,0.0,87,0.00,,,-99.99,,2013-02-11 02:01:00,
2013-02-10 19:11:00,23.0,20.0,30.07,SW,229,0.0,0.0,87,0.00,,,-99.99,,2013-02-11 02:11:00,
2013-02-10 19:21:00,22.0,19.0,30.07,West,261,0.0,3.0,88,0.00,,,-99.99,,2013-02-11 02:21:00,
2013-02-10 19:31:00,22.0,19.0,30.07,West,261,0.0,0.0,88,0.00,,,-99.99,,2013-02-11 02:31:00,
2013-02-10 19:41:00,22.0,19.0,30.07,West,261,0.0,0.0,88,0.00,,,-99.99,,2013-02-11 02:41:00,
2013-02-10 19:52:00,22.0,19.0,30.07,West,261,0.0,0.0,88,0.00,,,-99.99,,2013-02-11 02:52:00,
2013-02-10 20:01:00,22.0,19.0,30.07,West,261,0.0,0.0,89,0.00,,,-99.99,,2013-02-11 03:01:00,
2013-02-10 20:11:00,22.0,19.0,30.07,West,261,0.0,0.0,89,0.00,,,-99.99,,2013-02-11 03:11:00,
2013-02-10 20:21:00,22.0,19.0,30.07,West,261,0.0,0.0,89,0.00,,,-99.99,,2013-02-11 03:21:00,
2013-02-10 20:31:00,21.0,18.0,30.08,West,261,0.0,0.0,89,0.00,,,-99.99,,2013-02-11 03:31:00,
2013-02-10 20:41:00,21.0,18.0,30.08,West,261,0.0,1.0,89,0.00,,,-99.99,,2013-02-11 03:41:00,
2013-02-10 20:52:00,21.0,18.0,30.08,West,261,0.0,1.0,89,0.00,,,-99.99,,2013-02-11 03:52:00,
2013-02-10 21:01:00,21.0,19.0,30.09,West,261,0.0,0.0,90,0.00,,,-99.99,,2013-02-11 04:01:00,
2013-02-10 21:11:00,21.0,19.0,30.09,West,261,0.0,0.0,90,0.00,,,-99.99,,2013-02-11 04:11:00,
2013-02-10 21:21:00,21.0,19.0,30.09,West,263,0.0,2.0,91,0.00,,,-99.99,,2013-02-11 04:21:00,
2013-02-10 21:31:00,21.0,19.0,30.09,West,266,0.0,3.0,91,0.00,,,-99.99,,2013-02-11 04:31:00,
2013-02-10 21:41:00,21.0,19.0,30.09,West,266,0.0,3.0,91,0.00,,,-99.99,,2013-02-11 04:41:00,
2013-02-10 21:52:00,21.0,19.0,30.09,West,266,1.0,3.0,91,0.00,,,-99.99,,2013-02-11 04:52:00,
2013-02-10 22:01:00,21.0,19.0,30.09,West,266,0.0,0.0,91,0.00,,,-99.99,,2013-02-11 05:01:00,
2013-02-10 22:11:00,21.0,19.0,30.09,West,266,0.0,0.0,91,0.00,,,-99.99,,2013-02-11 05:11:00,
2013-02-10 22:22:00,21.0,19.0,30.09,West,266,0.0,0.0,91,0.00,,,-99.99,,2013-02-11 05:22:00,
2013-02-10 22:31:00,21.0,19.0,30.10,West,266,0.0,0.0,91,0.00,,,-99.99,,2013-02-11 05:31:00,
2013-02-10 22:41:00,21.0,19.0,30.10,West,266,0.0,0.0,91,0.00,,,-99.99,,2013-02-11 05:41:00,
2013-02-10 22:52:00,21.0,19.0,30.09,West,266,0.0,0.0,91,0.00,,,-99.99,,2013-02-11 05:52:00,
2013-02-10 23:01:00,21.0,19.0,30.09,West,266,0.0,0.0,91,0.00,,,-99.99,,2013-02-11 06:01:00,
2013-02-10 23:11:00,21.0,19.0,30.09,West,266,0.0,0.0,91,0.00,,,-99.99,,2013-02-11 06:11:00,
2013-02-10 23:21:00,21.0,19.0,30.09,West,266,0.0,0.0,91,0.00,,,-99.99,,2013-02-11 06:21:00,
2013-02-10 23:31:00,21.0,19.0,30.09,SW,230,0.0,0.0,92,0.00,,,-99.99,,2013-02-11 06:31:00,
2013-02-10 23:41:00,21.0,19.0,30.10,West,259,0.0,0.0,91,0.00,,,-99.99,,2013-02-11 06:41:00,
2013-02-10 23:52:00,21.0,19.0,30.10,West,259,0.0,0.0,91,0.00,,,-99.99,,2013-02-11 06:52:00,